owner,sensor,date,latitude,longitude,relative_humidity,qcFlag 
DISL,ioos:station:DISL:CATA:1,2019-03-01T03:47:00Z,30.3085,-88.1395,97.2,1111122 
DISL,ioos:station:DISL:CATA:1,2019-03-01T04:47:00Z,30.3085,-88.1395,98.4,1111122 
DISL,ioos:station:DISL:CATA:1,2019-03-01T05:47:00Z,30.3085,-88.1395,98.6,1111122 
DISL,ioos:station:DISL:CATA:1,2019-03-01T06:47:00Z,30.3085,-88.1395,99.2,1111122 
DISL,ioos:station:DISL:CATA:1,2019-03-01T07:47:00Z,30.3085,-88.1395,99.3,1111122 
DISL,ioos:station:DISL:CATA:1,2019-03-01T08:47:00Z,30.3085,-88.1395,98.8,1111122 
DISL,ioos:station:DISL:CATA:1,2019-03-01T09:47:00Z,30.3085,-88.1395,99.2,1111122 
DISL,ioos:station:DISL:CATA:1,2019-03-01T10:47:00Z,30.3085,-88.1395,99.2,1111122 
DISL,ioos:station:DISL:CATA:1,2019-03-01T11:47:00Z,30.3085,-88.1395,99.2,1111122 
DISL,ioos:station:DISL:CATA:1,2019-03-01T12:47:00Z,30.3085,-88.1395,99.2,1111122 
DISL,ioos:station:DISL:CATA:1,2019-03-01T13:47:00Z,30.3085,-88.1395,93.9,1111122 
DISL,ioos:station:DISL:CATA:1,2019-03-01T14:47:00Z,30.3085,-88.1395,94.2,1111122 
DISL,ioos:station:DISL:CATA:1,2019-03-01T15:47:00Z,30.3085,-88.1395,94.0,1111122 
DISL,ioos:station:DISL:CATA:1,2019-03-01T16:47:00Z,30.3085,-88.1395,88.5,1111122 
DISL,ioos:station:DISL:CATA:1,2019-03-01T17:47:00Z,30.3085,-88.1395,87.2,1111122 
DISL,ioos:station:DISL:CATA:1,2019-03-01T18:47:00Z,30.3085,-88.1395,92.2,1111122 
DISL,ioos:station:DISL:CATA:1,2019-03-01T19:47:00Z,30.3085,-88.1395,88.1,1111122 
DISL,ioos:station:DISL:CATA:1,2019-03-01T20:47:00Z,30.3085,-88.1395,89.2,1111122 
DISL,ioos:station:DISL:CATA:1,2019-03-01T21:47:00Z,30.3085,-88.1395,91.6,1111122 
DISL,ioos:station:DISL:CATA:1,2019-03-01T22:47:00Z,30.3085,-88.1395,89.6,1111122 
DISL,ioos:station:DISL:CATA:1,2019-03-01T23:47:00Z,30.3085,-88.1395,90.2,1111122 
DISL,ioos:station:DISL:CATA:1,2019-03-02T00:47:00Z,30.3085,-88.1395,93.1,1111122 
DISL,ioos:station:DISL:CATA:1,2019-03-02T01:47:00Z,30.3085,-88.1395,91.4,1111122 
DISL,ioos:station:DISL:CATA:1,2019-03-02T02:47:00Z,30.3085,-88.1395,93.6,1111122 
DISL,ioos:station:DISL:CATA:1,2019-03-02T03:47:00Z,30.3085,-88.1395,93.7,1111122 
DISL,ioos:station:DISL:CATA:1,2019-03-02T04:47:00Z,30.3085,-88.1395,93.7,1111122 
DISL,ioos:station:DISL:CATA:1,2019-03-02T05:47:00Z,30.3085,-88.1395,95.1,1111122 
DISL,ioos:station:DISL:CATA:1,2019-03-02T06:47:00Z,30.3085,-88.1395,96.9,1111122 
DISL,ioos:station:DISL:CATA:1,2019-03-02T07:47:00Z,30.3085,-88.1395,98.1,1111122 
DISL,ioos:station:DISL:CATA:1,2019-03-02T08:47:00Z,30.3085,-88.1395,98.9,1111122 
DISL,ioos:station:DISL:CATA:1,2019-03-02T09:47:00Z,30.3085,-88.1395,99.2,1111122 
DISL,ioos:station:DISL:CATA:1,2019-03-02T10:47:00Z,30.3085,-88.1395,99.2,1111122 
DISL,ioos:station:DISL:CATA:1,2019-03-02T11:47:00Z,30.3085,-88.1395,99.2,1111122 
DISL,ioos:station:DISL:CATA:1,2019-03-02T12:47:00Z,30.3085,-88.1395,99.2,1111122 
DISL,ioos:station:DISL:CATA:1,2019-03-02T13:47:00Z,30.3085,-88.1395,99.2,1111122 
DISL,ioos:station:DISL:CATA:1,2019-03-02T14:47:00Z,30.3085,-88.1395,99.3,1111122 
DISL,ioos:station:DISL:CATA:1,2019-03-02T15:47:00Z,30.3085,-88.1395,99.2,1111122 
DISL,ioos:station:DISL:CATA:1,2019-03-02T16:47:00Z,30.3085,-88.1395,99.2,1111122 
DISL,ioos:station:DISL:CATA:1,2019-03-02T17:47:00Z,30.3085,-88.1395,99.2,1111122 
DISL,ioos:station:DISL:CATA:1,2019-03-02T18:47:00Z,30.3085,-88.1395,95.1,1111122 
DISL,ioos:station:DISL:CATA:1,2019-03-02T19:47:00Z,30.3085,-88.1395,91.8,1111122 
DISL,ioos:station:DISL:CATA:1,2019-03-02T20:47:00Z,30.3085,-88.1395,93.9,1111122 
DISL,ioos:station:DISL:CATA:1,2019-03-02T21:47:00Z,30.3085,-88.1395,87.5,1111122 
DISL,ioos:station:DISL:CATA:1,2019-03-02T22:47:00Z,30.3085,-88.1395,89.9,1111122 
DISL,ioos:station:DISL:CATA:1,2019-03-02T23:47:00Z,30.3085,-88.1395,91.1,1111122 
DISL,ioos:station:DISL:CATA:1,2019-03-03T00:47:00Z,30.3085,-88.1395,90.8,1111122 
DISL,ioos:station:DISL:CATA:1,2019-03-03T01:47:00Z,30.3085,-88.1395,89.0,1111122 
DISL,ioos:station:DISL:CATA:1,2019-03-03T02:47:00Z,30.3085,-88.1395,86.6,1111122 
DISL,ioos:station:DISL:CATA:1,2019-03-03T03:47:00Z,30.3085,-88.1395,86.8,1111122 
DISL,ioos:station:DISL:CATA:1,2019-03-03T04:47:00Z,30.3085,-88.1395,84.1,1111122 
DISL,ioos:station:DISL:CATA:1,2019-03-03T05:47:00Z,30.3085,-88.1395,87.6,1111122 
DISL,ioos:station:DISL:CATA:1,2019-03-03T06:47:00Z,30.3085,-88.1395,91.1,1111122 
DISL,ioos:station:DISL:CATA:1,2019-03-03T07:47:00Z,30.3085,-88.1395,92.8,1111122 
DISL,ioos:station:DISL:CATA:1,2019-03-03T08:47:00Z,30.3085,-88.1395,93.7,1111122 
DISL,ioos:station:DISL:CATA:1,2019-03-03T09:47:00Z,30.3085,-88.1395,94.1,1111122 
DISL,ioos:station:DISL:CATA:1,2019-03-03T10:47:00Z,30.3085,-88.1395,94.3,1111122 
DISL,ioos:station:DISL:CATA:1,2019-03-03T11:47:00Z,30.3085,-88.1395,96.6,1111122 
DISL,ioos:station:DISL:CATA:1,2019-03-03T12:47:00Z,30.3085,-88.1395,99.3,1111122 
DISL,ioos:station:DISL:CATA:1,2019-03-03T13:47:00Z,30.3085,-88.1395,99.2,1111122 
DISL,ioos:station:DISL:CATA:1,2019-03-03T14:47:00Z,30.3085,-88.1395,99.2,1111122 
DISL,ioos:station:DISL:CATA:1,2019-03-03T15:47:00Z,30.3085,-88.1395,99.3,1111122 
DISL,ioos:station:DISL:CATA:1,2019-03-03T16:47:00Z,30.3085,-88.1395,98.6,1111122 
DISL,ioos:station:DISL:CATA:1,2019-03-03T17:47:00Z,30.3085,-88.1395,99.2,1111122 
DISL,ioos:station:DISL:CATA:1,2019-03-03T18:47:00Z,30.3085,-88.1395,99.2,1111122 
DISL,ioos:station:DISL:CATA:1,2019-03-03T19:47:00Z,30.3085,-88.1395,99.2,1111122 
DISL,ioos:station:DISL:CATA:1,2019-03-03T20:47:00Z,30.3085,-88.1395,99.2,1111122 
DISL,ioos:station:DISL:CATA:1,2019-03-03T21:47:00Z,30.3085,-88.1395,99.2,1111122 
DISL,ioos:station:DISL:CATA:1,2019-03-03T22:47:00Z,30.3085,-88.1395,96.0,1111122 
DISL,ioos:station:DISL:CATA:1,2019-03-03T23:47:00Z,30.3085,-88.1395,88.7,1111122 
DISL,ioos:station:DISL:CATA:1,2019-03-04T00:47:00Z,30.3085,-88.1395,86.8,1111122 
DISL,ioos:station:DISL:CATA:1,2019-03-04T01:47:00Z,30.3085,-88.1395,82.5,1111122 
DISL,ioos:station:DISL:CATA:1,2019-03-04T02:47:00Z,30.3085,-88.1395,79.8,1111122 
DISL,ioos:station:DISL:CATA:1,2019-03-04T03:47:00Z,30.3085,-88.1395,82.4,1111122 
DISL,ioos:station:DISL:CATA:1,2019-03-04T04:47:00Z,30.3085,-88.1395,82.8,1111122 
DISL,ioos:station:DISL:CATA:1,2019-03-04T05:47:00Z,30.3085,-88.1395,78.94,1111122 
DISL,ioos:station:DISL:CATA:1,2019-03-04T06:47:00Z,30.3085,-88.1395,76.91,1111122 
DISL,ioos:station:DISL:CATA:1,2019-03-04T07:47:00Z,30.3085,-88.1395,78.42,1111122 
DISL,ioos:station:DISL:CATA:1,2019-03-04T08:47:00Z,30.3085,-88.1395,76.12,1111122 
DISL,ioos:station:DISL:CATA:1,2019-03-04T09:47:00Z,30.3085,-88.1395,79.69,1111122 
DISL,ioos:station:DISL:CATA:1,2019-03-04T10:47:00Z,30.3085,-88.1395,77.85,1111122 
DISL,ioos:station:DISL:CATA:1,2019-03-04T11:47:00Z,30.3085,-88.1395,77.58,1111122 
DISL,ioos:station:DISL:CATA:1,2019-03-04T12:47:00Z,30.3085,-88.1395,76.8,1111122 
DISL,ioos:station:DISL:CATA:1,2019-03-04T13:47:00Z,30.3085,-88.1395,73.03,1111122 
DISL,ioos:station:DISL:CATA:1,2019-03-04T14:47:00Z,30.3085,-88.1395,69.14,1111122 
DISL,ioos:station:DISL:CATA:1,2019-03-04T15:47:00Z,30.3085,-88.1395,67.72,1111122 
DISL,ioos:station:DISL:CATA:1,2019-03-04T16:47:00Z,30.3085,-88.1395,64.49,1111122 
DISL,ioos:station:DISL:CATA:1,2019-03-04T17:47:00Z,30.3085,-88.1395,62.49,1111122 
DISL,ioos:station:DISL:CATA:1,2019-03-04T18:47:00Z,30.3085,-88.1395,59.77,1111122 
DISL,ioos:station:DISL:CATA:1,2019-03-04T19:47:00Z,30.3085,-88.1395,62.0,1111122 
DISL,ioos:station:DISL:CATA:1,2019-03-04T20:47:00Z,30.3085,-88.1395,71.95,1111122 
DISL,ioos:station:DISL:CATA:1,2019-03-04T21:47:00Z,30.3085,-88.1395,70.12,1111122 
DISL,ioos:station:DISL:CATA:1,2019-03-04T22:47:00Z,30.3085,-88.1395,69.54,1111122 
DISL,ioos:station:DISL:CATA:1,2019-03-04T23:47:00Z,30.3085,-88.1395,66.0,1111122 
DISL,ioos:station:DISL:CATA:1,2019-03-05T00:47:00Z,30.3085,-88.1395,64.61,1111122 
DISL,ioos:station:DISL:CATA:1,2019-03-05T01:47:00Z,30.3085,-88.1395,61.83,1111122 
DISL,ioos:station:DISL:CATA:1,2019-03-05T02:47:00Z,30.3085,-88.1395,62.82,1111122 
DISL,ioos:station:DISL:CATA:1,2019-03-05T03:47:00Z,30.3085,-88.1395,62.93,1111122 
DISL,ioos:station:DISL:CATA:1,2019-03-05T04:47:00Z,30.3085,-88.1395,65.57,1111122 
DISL,ioos:station:DISL:CATA:1,2019-03-05T05:47:00Z,30.3085,-88.1395,91.1,1111122 
DISL,ioos:station:DISL:CATA:1,2019-03-05T06:47:00Z,30.3085,-88.1395,91.5,1111122 
DISL,ioos:station:DISL:CATA:1,2019-03-05T07:47:00Z,30.3085,-88.1395,89.7,1111122 
DISL,ioos:station:DISL:CATA:1,2019-03-05T08:47:00Z,30.3085,-88.1395,82.8,1111122 
DISL,ioos:station:DISL:CATA:1,2019-03-05T09:47:00Z,30.3085,-88.1395,77.01,1111122 
DISL,ioos:station:DISL:CATA:1,2019-03-05T10:47:00Z,30.3085,-88.1395,70.69,1111122 
DISL,ioos:station:DISL:CATA:1,2019-03-05T11:47:00Z,30.3085,-88.1395,68.53,1111122 
DISL,ioos:station:DISL:CATA:1,2019-03-05T12:47:00Z,30.3085,-88.1395,70.24,1111122 
DISL,ioos:station:DISL:CATA:1,2019-03-05T13:47:00Z,30.3085,-88.1395,60.98,1111122 
DISL,ioos:station:DISL:CATA:1,2019-03-05T14:47:00Z,30.3085,-88.1395,54.46,1111122 
DISL,ioos:station:DISL:CATA:1,2019-03-05T15:47:00Z,30.3085,-88.1395,48.0,1111122 
DISL,ioos:station:DISL:CATA:1,2019-03-05T16:47:00Z,30.3085,-88.1395,42.5,1111122 
DISL,ioos:station:DISL:CATA:1,2019-03-05T17:47:00Z,30.3085,-88.1395,39.99,1111122 
DISL,ioos:station:DISL:CATA:1,2019-03-05T18:47:00Z,30.3085,-88.1395,28.57,1111122 
DISL,ioos:station:DISL:CATA:1,2019-03-05T19:47:00Z,30.3085,-88.1395,28.6,1111122 
DISL,ioos:station:DISL:CATA:1,2019-03-05T20:47:00Z,30.3085,-88.1395,28.81,1111122 
DISL,ioos:station:DISL:CATA:1,2019-03-05T22:47:00Z,30.3085,-88.1395,28.57,1111122 
DISL,ioos:station:DISL:CATA:1,2019-03-05T23:47:00Z,30.3085,-88.1395,31.82,1111122 
DISL,ioos:station:DISL:CATA:1,2019-03-06T00:47:00Z,30.3085,-88.1395,42.47,1111122 
DISL,ioos:station:DISL:CATA:1,2019-03-06T01:47:00Z,30.3085,-88.1395,44.87,1111122 
DISL,ioos:station:DISL:CATA:1,2019-03-06T02:47:00Z,30.3085,-88.1395,48.17,1111122 
DISL,ioos:station:DISL:CATA:1,2019-03-06T03:47:00Z,30.3085,-88.1395,52.02,1111122 
DISL,ioos:station:DISL:CATA:1,2019-03-06T04:47:00Z,30.3085,-88.1395,45.57,1111122 
DISL,ioos:station:DISL:CATA:1,2019-03-06T05:47:00Z,30.3085,-88.1395,48.32,1111122 
DISL,ioos:station:DISL:CATA:1,2019-03-06T06:47:00Z,30.3085,-88.1395,46.29,1111122 
DISL,ioos:station:DISL:CATA:1,2019-03-06T07:47:00Z,30.3085,-88.1395,52.54,1111122 
DISL,ioos:station:DISL:CATA:1,2019-03-06T08:47:00Z,30.3085,-88.1395,52.47,1111122 
DISL,ioos:station:DISL:CATA:1,2019-03-06T09:47:00Z,30.3085,-88.1395,58.63,1111122 
DISL,ioos:station:DISL:CATA:1,2019-03-06T10:47:00Z,30.3085,-88.1395,58.6,1111122 
DISL,ioos:station:DISL:CATA:1,2019-03-06T11:47:00Z,30.3085,-88.1395,61.31,1111122 
DISL,ioos:station:DISL:CATA:1,2019-03-06T12:47:00Z,30.3085,-88.1395,61.14,1111122 
DISL,ioos:station:DISL:CATA:1,2019-03-06T13:47:00Z,30.3085,-88.1395,59.34,1111122 
DISL,ioos:station:DISL:CATA:1,2019-03-06T14:47:00Z,30.3085,-88.1395,50.69,1111122 
DISL,ioos:station:DISL:CATA:1,2019-03-06T15:47:00Z,30.3085,-88.1395,43.5,1111122 
DISL,ioos:station:DISL:CATA:1,2019-03-06T16:47:00Z,30.3085,-88.1395,41.75,1111122 
DISL,ioos:station:DISL:CATA:1,2019-03-06T17:47:00Z,30.3085,-88.1395,47.41,1111122 
DISL,ioos:station:DISL:CATA:1,2019-03-06T18:47:00Z,30.3085,-88.1395,40.12,1111122 
DISL,ioos:station:DISL:CATA:1,2019-03-06T19:47:00Z,30.3085,-88.1395,34.29,1111122 
DISL,ioos:station:DISL:CATA:1,2019-03-06T20:47:00Z,30.3085,-88.1395,35.6,1111122 
DISL,ioos:station:DISL:CATA:1,2019-03-06T21:47:00Z,30.3085,-88.1395,33.33,1111122 
DISL,ioos:station:DISL:CATA:1,2019-03-06T22:47:00Z,30.3085,-88.1395,33.92,1111122 
DISL,ioos:station:DISL:CATA:1,2019-03-06T23:47:00Z,30.3085,-88.1395,46.88,1111122 
DISL,ioos:station:DISL:CATA:1,2019-03-07T00:47:00Z,30.3085,-88.1395,47.68,1111122 
DISL,ioos:station:DISL:CATA:1,2019-03-07T01:47:00Z,30.3085,-88.1395,47.96,1111122 
DISL,ioos:station:DISL:CATA:1,2019-03-07T02:47:00Z,30.3085,-88.1395,53.48,1111122 
DISL,ioos:station:DISL:CATA:1,2019-03-07T03:47:00Z,30.3085,-88.1395,64.63,1111122 
DISL,ioos:station:DISL:CATA:1,2019-03-07T04:47:00Z,30.3085,-88.1395,64.25,1111122 
DISL,ioos:station:DISL:CATA:1,2019-03-07T05:47:00Z,30.3085,-88.1395,72.05,1111122 
DISL,ioos:station:DISL:CATA:1,2019-03-07T06:47:00Z,30.3085,-88.1395,71.47,1111122 
DISL,ioos:station:DISL:CATA:1,2019-03-07T07:47:00Z,30.3085,-88.1395,71.61,1111122 
DISL,ioos:station:DISL:CATA:1,2019-03-07T08:47:00Z,30.3085,-88.1395,71.33,1111122 
DISL,ioos:station:DISL:CATA:1,2019-03-07T09:47:00Z,30.3085,-88.1395,69.31,1111122 
DISL,ioos:station:DISL:CATA:1,2019-03-07T10:47:00Z,30.3085,-88.1395,66.94,1111122 
DISL,ioos:station:DISL:CATA:1,2019-03-07T11:47:00Z,30.3085,-88.1395,77.96,1111122 
DISL,ioos:station:DISL:CATA:1,2019-03-07T12:47:00Z,30.3085,-88.1395,80.8,1111122 
DISL,ioos:station:DISL:CATA:1,2019-03-07T13:47:00Z,30.3085,-88.1395,50.81,1111122 
DISL,ioos:station:DISL:CATA:1,2019-03-07T14:47:00Z,30.3085,-88.1395,54.01,1111122 
DISL,ioos:station:DISL:CATA:1,2019-03-07T15:47:00Z,30.3085,-88.1395,55.14,1111122 
DISL,ioos:station:DISL:CATA:1,2019-03-07T16:47:00Z,30.3085,-88.1395,55.27,1111122 
DISL,ioos:station:DISL:CATA:1,2019-03-07T17:47:00Z,30.3085,-88.1395,51.56,1111122 
DISL,ioos:station:DISL:CATA:1,2019-03-07T18:47:00Z,30.3085,-88.1395,56.02,1111122 
DISL,ioos:station:DISL:CATA:1,2019-03-07T19:47:00Z,30.3085,-88.1395,59.78,1111122 
DISL,ioos:station:DISL:CATA:1,2019-03-07T20:47:00Z,30.3085,-88.1395,66.85,1111122 
DISL,ioos:station:DISL:CATA:1,2019-03-07T21:47:00Z,30.3085,-88.1395,59.41,1111122 
DISL,ioos:station:DISL:CATA:1,2019-03-07T22:47:00Z,30.3085,-88.1395,72.06,1111122 
DISL,ioos:station:DISL:CATA:1,2019-03-07T23:47:00Z,30.3085,-88.1395,76.91,1111122 
DISL,ioos:station:DISL:CATA:1,2019-03-08T00:47:00Z,30.3085,-88.1395,81.8,1111122 
DISL,ioos:station:DISL:CATA:1,2019-03-08T01:47:00Z,30.3085,-88.1395,77.64,1111122 
DISL,ioos:station:DISL:CATA:1,2019-03-08T02:47:00Z,30.3085,-88.1395,77.09,1111122 
DISL,ioos:station:DISL:CATA:1,2019-03-08T03:47:00Z,30.3085,-88.1395,75.3,1111122 
DISL,ioos:station:DISL:CATA:1,2019-03-08T04:47:00Z,30.3085,-88.1395,75.16,1111122 
DISL,ioos:station:DISL:CATA:1,2019-03-08T05:47:00Z,30.3085,-88.1395,78.38,1111122 
DISL,ioos:station:DISL:CATA:1,2019-03-08T06:47:00Z,30.3085,-88.1395,78.83,1111122 
DISL,ioos:station:DISL:CATA:1,2019-03-08T07:47:00Z,30.3085,-88.1395,85.1,1111122 
DISL,ioos:station:DISL:CATA:1,2019-03-08T08:47:00Z,30.3085,-88.1395,88.5,1111122 
DISL,ioos:station:DISL:CATA:1,2019-03-08T09:47:00Z,30.3085,-88.1395,88.1,1111122 
DISL,ioos:station:DISL:CATA:1,2019-03-08T10:47:00Z,30.3085,-88.1395,89.6,1111122 
DISL,ioos:station:DISL:CATA:1,2019-03-08T11:47:00Z,30.3085,-88.1395,89.4,1111122 
DISL,ioos:station:DISL:CATA:1,2019-03-08T12:47:00Z,30.3085,-88.1395,89.4,1111122 
DISL,ioos:station:DISL:CATA:1,2019-03-08T13:47:00Z,30.3085,-88.1395,87.4,1111122 
DISL,ioos:station:DISL:CATA:1,2019-03-08T17:17:00Z,30.3085,-88.1395,74.48,1111122 
DISL,ioos:station:DISL:CATA:1,2019-03-08T17:47:00Z,30.3085,-88.1395,80.7,1111122 
DISL,ioos:station:DISL:CATA:1,2019-03-08T18:47:00Z,30.3085,-88.1395,74.33,1111122 
DISL,ioos:station:DISL:CATA:1,2019-03-08T19:47:00Z,30.3085,-88.1395,71.52,1111122 
DISL,ioos:station:DISL:CATA:1,2019-03-08T20:47:00Z,30.3085,-88.1395,82.3,1111122 
DISL,ioos:station:DISL:CATA:1,2019-03-08T21:47:00Z,30.3085,-88.1395,84.1,1111122 
DISL,ioos:station:DISL:CATA:1,2019-03-08T22:47:00Z,30.3085,-88.1395,86.1,1111122 
DISL,ioos:station:DISL:CATA:1,2019-03-08T23:47:00Z,30.3085,-88.1395,81.6,1111122 
DISL,ioos:station:DISL:CATA:1,2019-03-09T00:47:00Z,30.3085,-88.1395,83.9,1111122 
DISL,ioos:station:DISL:CATA:1,2019-03-09T01:47:00Z,30.3085,-88.1395,87.5,1111122 
DISL,ioos:station:DISL:CATA:1,2019-03-09T02:47:00Z,30.3085,-88.1395,90.9,1111122 
DISL,ioos:station:DISL:CATA:1,2019-03-09T03:47:00Z,30.3085,-88.1395,93.9,1111122 
DISL,ioos:station:DISL:CATA:1,2019-03-09T04:47:00Z,30.3085,-88.1395,94.3,1111122 
DISL,ioos:station:DISL:CATA:1,2019-03-09T05:47:00Z,30.3085,-88.1395,95.6,1111122 
DISL,ioos:station:DISL:CATA:1,2019-03-09T06:47:00Z,30.3085,-88.1395,96.7,1111122 
DISL,ioos:station:DISL:CATA:1,2019-03-09T07:47:00Z,30.3085,-88.1395,97.5,1111122 
DISL,ioos:station:DISL:CATA:1,2019-03-09T08:47:00Z,30.3085,-88.1395,98.7,1111122 
DISL,ioos:station:DISL:CATA:1,2019-03-09T09:47:00Z,30.3085,-88.1395,99.2,1111122 
DISL,ioos:station:DISL:CATA:1,2019-03-09T10:47:00Z,30.3085,-88.1395,99.2,1111122 
DISL,ioos:station:DISL:CATA:1,2019-03-09T11:47:00Z,30.3085,-88.1395,99.2,1111122 
DISL,ioos:station:DISL:CATA:1,2019-03-09T12:47:00Z,30.3085,-88.1395,99.2,1111122 
DISL,ioos:station:DISL:CATA:1,2019-03-09T13:47:00Z,30.3085,-88.1395,99.2,1111122 
DISL,ioos:station:DISL:CATA:1,2019-03-09T14:47:00Z,30.3085,-88.1395,98.1,1111122 
DISL,ioos:station:DISL:CATA:1,2019-03-09T15:47:00Z,30.3085,-88.1395,92.4,1111122 
DISL,ioos:station:DISL:CATA:1,2019-03-09T16:47:00Z,30.3085,-88.1395,85.3,1111122 
DISL,ioos:station:DISL:CATA:1,2019-03-09T17:47:00Z,30.3085,-88.1395,86.1,1111122 
DISL,ioos:station:DISL:CATA:1,2019-03-09T18:47:00Z,30.3085,-88.1395,82.8,1111122 
DISL,ioos:station:DISL:CATA:1,2019-03-09T19:47:00Z,30.3085,-88.1395,85.4,1111122 
DISL,ioos:station:DISL:CATA:1,2019-03-09T20:47:00Z,30.3085,-88.1395,88.1,1111122 
DISL,ioos:station:DISL:CATA:1,2019-03-09T21:47:00Z,30.3085,-88.1395,89.0,1111122 
DISL,ioos:station:DISL:CATA:1,2019-03-09T22:47:00Z,30.3085,-88.1395,89.5,1111122 
DISL,ioos:station:DISL:CATA:1,2019-03-09T23:47:00Z,30.3085,-88.1395,89.9,1111122 
DISL,ioos:station:DISL:CATA:1,2019-03-10T00:47:00Z,30.3085,-88.1395,93.2,1111122 
DISL,ioos:station:DISL:CATA:1,2019-03-10T01:47:00Z,30.3085,-88.1395,92.9,1111122 
DISL,ioos:station:DISL:CATA:1,2019-03-10T02:47:00Z,30.3085,-88.1395,95.6,1111122 
DISL,ioos:station:DISL:CATA:1,2019-03-10T03:47:00Z,30.3085,-88.1395,96.0,1111122 
DISL,ioos:station:DISL:CATA:1,2019-03-10T04:47:00Z,30.3085,-88.1395,96.2,1111122 
DISL,ioos:station:DISL:CATA:1,2019-03-10T05:47:00Z,30.3085,-88.1395,97.5,1111122 
DISL,ioos:station:DISL:CATA:1,2019-03-10T06:47:00Z,30.3085,-88.1395,97.8,1111122 
DISL,ioos:station:DISL:CATA:1,2019-03-10T07:47:00Z,30.3085,-88.1395,99.0,1111122 
DISL,ioos:station:DISL:CATA:1,2019-03-10T08:46:00Z,30.3085,-88.1395,99.2,1111122 
DISL,ioos:station:DISL:CATA:1,2019-03-10T09:46:00Z,30.3085,-88.1395,99.2,1111122 
DISL,ioos:station:DISL:CATA:1,2019-03-10T10:46:00Z,30.3085,-88.1395,99.2,1111122 
DISL,ioos:station:DISL:CATA:1,2019-03-10T11:46:00Z,30.3085,-88.1395,99.2,1111122 
DISL,ioos:station:DISL:CATA:1,2019-03-10T12:46:00Z,30.3085,-88.1395,99.2,1111122 
DISL,ioos:station:DISL:CATA:1,2019-03-10T13:46:00Z,30.3085,-88.1395,99.3,1111122 
DISL,ioos:station:DISL:CATA:1,2019-03-10T14:46:00Z,30.3085,-88.1395,99.2,1111122 
DISL,ioos:station:DISL:CATA:1,2019-03-10T15:46:00Z,30.3085,-88.1395,99.2,1111122 
DISL,ioos:station:DISL:CATA:1,2019-03-10T16:46:00Z,30.3085,-88.1395,99.3,1111122 
DISL,ioos:station:DISL:CATA:1,2019-03-10T17:46:00Z,30.3085,-88.1395,97.0,1111122 
DISL,ioos:station:DISL:CATA:1,2019-03-10T18:46:00Z,30.3085,-88.1395,97.0,1111122 
DISL,ioos:station:DISL:CATA:1,2019-03-10T19:46:00Z,30.3085,-88.1395,97.4,1111122 
DISL,ioos:station:DISL:CATA:1,2019-03-10T20:46:00Z,30.3085,-88.1395,97.8,1111122 
DISL,ioos:station:DISL:CATA:1,2019-03-10T21:46:00Z,30.3085,-88.1395,92.8,1111122 
DISL,ioos:station:DISL:CATA:1,2019-03-11T04:46:00Z,30.3085,-88.1395,99.2,1111122 
DISL,ioos:station:DISL:CATA:1,2019-03-11T05:46:00Z,30.3085,-88.1395,99.2,1111122 
DISL,ioos:station:DISL:CATA:1,2019-03-11T06:46:00Z,30.3085,-88.1395,99.2,1111122 
DISL,ioos:station:DISL:CATA:1,2019-03-11T07:46:00Z,30.3085,-88.1395,99.2,1111122 
DISL,ioos:station:DISL:CATA:1,2019-03-11T08:46:00Z,30.3085,-88.1395,99.2,1111122 
DISL,ioos:station:DISL:CATA:1,2019-03-11T09:46:00Z,30.3085,-88.1395,99.2,1111122 
DISL,ioos:station:DISL:CATA:1,2019-03-11T10:46:00Z,30.3085,-88.1395,99.2,1111122 
DISL,ioos:station:DISL:CATA:1,2019-03-11T11:46:00Z,30.3085,-88.1395,99.2,1111122 
DISL,ioos:station:DISL:CATA:1,2019-03-11T12:46:00Z,30.3085,-88.1395,99.2,1111122 
DISL,ioos:station:DISL:CATA:1,2019-03-11T13:46:00Z,30.3085,-88.1395,99.2,1111122 
DISL,ioos:station:DISL:CATA:1,2019-03-11T14:46:00Z,30.3085,-88.1395,99.2,1111122 
DISL,ioos:station:DISL:CATA:1,2019-03-11T15:46:00Z,30.3085,-88.1395,99.2,1111122 
DISL,ioos:station:DISL:CATA:1,2019-03-11T16:46:00Z,30.3085,-88.1395,99.2,1111122 
DISL,ioos:station:DISL:CATA:1,2019-03-11T17:46:00Z,30.3085,-88.1395,99.2,1111122 
DISL,ioos:station:DISL:CATA:1,2019-03-11T18:46:00Z,30.3085,-88.1395,99.2,1111122 
DISL,ioos:station:DISL:CATA:1,2019-03-11T19:46:00Z,30.3085,-88.1395,99.2,1111122 
DISL,ioos:station:DISL:CATA:1,2019-03-11T20:46:00Z,30.3085,-88.1395,99.2,1111122 
DISL,ioos:station:DISL:CATA:1,2019-03-11T21:46:00Z,30.3085,-88.1395,99.2,1111122 
DISL,ioos:station:DISL:CATA:1,2019-03-11T22:46:00Z,30.3085,-88.1395,99.2,1111122 
DISL,ioos:station:DISL:CATA:1,2019-03-11T23:46:00Z,30.3085,-88.1395,82.8,1111122 
DISL,ioos:station:DISL:CATA:1,2019-03-12T00:46:00Z,30.3085,-88.1395,92.4,1111122 
DISL,ioos:station:DISL:CATA:1,2019-03-12T01:46:00Z,30.3085,-88.1395,92.4,1111122 
DISL,ioos:station:DISL:CATA:1,2019-03-12T02:46:00Z,30.3085,-88.1395,88.7,1111122 
DISL,ioos:station:DISL:CATA:1,2019-03-12T03:46:00Z,30.3085,-88.1395,87.6,1111122 
DISL,ioos:station:DISL:CATA:1,2019-03-12T04:46:00Z,30.3085,-88.1395,90.1,1111122 
DISL,ioos:station:DISL:CATA:1,2019-03-12T05:46:00Z,30.3085,-88.1395,89.8,1111122 
DISL,ioos:station:DISL:CATA:1,2019-03-12T06:46:00Z,30.3085,-88.1395,90.7,1111122 
DISL,ioos:station:DISL:CATA:1,2019-03-12T07:46:00Z,30.3085,-88.1395,89.2,1111122 
DISL,ioos:station:DISL:CATA:1,2019-03-12T08:46:00Z,30.3085,-88.1395,81.3,1111122 
DISL,ioos:station:DISL:CATA:1,2019-03-12T09:46:00Z,30.3085,-88.1395,79.6,1111122 
DISL,ioos:station:DISL:CATA:1,2019-03-12T10:46:00Z,30.3085,-88.1395,79.32,1111122 
DISL,ioos:station:DISL:CATA:1,2019-03-12T11:46:00Z,30.3085,-88.1395,80.4,1111122 
DISL,ioos:station:DISL:CATA:1,2019-03-12T12:46:00Z,30.3085,-88.1395,80.7,1111122 
DISL,ioos:station:DISL:CATA:1,2019-03-12T13:46:00Z,30.3085,-88.1395,79.46,1111122 
DISL,ioos:station:DISL:CATA:1,2019-03-12T14:46:00Z,30.3085,-88.1395,80.5,1111122 
DISL,ioos:station:DISL:CATA:1,2019-03-12T15:46:00Z,30.3085,-88.1395,73.64,1111122 
DISL,ioos:station:DISL:CATA:1,2019-03-12T16:46:00Z,30.3085,-88.1395,78.98,1111122 
DISL,ioos:station:DISL:CATA:1,2019-03-12T17:46:00Z,30.3085,-88.1395,63.88,1111122 
DISL,ioos:station:DISL:CATA:1,2019-03-12T18:46:00Z,30.3085,-88.1395,65.39,1111122 
DISL,ioos:station:DISL:CATA:1,2019-03-12T19:46:00Z,30.3085,-88.1395,54.7,1111122 
DISL,ioos:station:DISL:CATA:1,2019-03-12T20:46:00Z,30.3085,-88.1395,65.35,1111122 
DISL,ioos:station:DISL:CATA:1,2019-03-12T21:46:00Z,30.3085,-88.1395,75.33,1111122 
DISL,ioos:station:DISL:CATA:1,2019-03-12T22:46:00Z,30.3085,-88.1395,76.37,1111122 
DISL,ioos:station:DISL:CATA:1,2019-03-12T23:46:00Z,30.3085,-88.1395,81.9,1111122 
DISL,ioos:station:DISL:CATA:1,2019-03-13T00:46:00Z,30.3085,-88.1395,85.0,1111122 
DISL,ioos:station:DISL:CATA:1,2019-03-13T01:46:00Z,30.3085,-88.1395,88.4,1111122 
DISL,ioos:station:DISL:CATA:1,2019-03-13T02:46:00Z,30.3085,-88.1395,91.1,1111122 
DISL,ioos:station:DISL:CATA:1,2019-03-13T03:46:00Z,30.3085,-88.1395,93.6,1111122 
DISL,ioos:station:DISL:CATA:1,2019-03-13T04:46:00Z,30.3085,-88.1395,94.8,1111122 
DISL,ioos:station:DISL:CATA:1,2019-03-13T05:46:00Z,30.3085,-88.1395,94.9,1111122 
DISL,ioos:station:DISL:CATA:1,2019-03-13T06:46:00Z,30.3085,-88.1395,95.8,1111122 
DISL,ioos:station:DISL:CATA:1,2019-03-13T07:46:00Z,30.3085,-88.1395,98.1,1111122 
DISL,ioos:station:DISL:CATA:1,2019-03-13T08:47:00Z,30.3085,-88.1395,98.0,1111122 
DISL,ioos:station:DISL:CATA:1,2019-03-13T09:47:00Z,30.3085,-88.1395,98.0,1111122 
DISL,ioos:station:DISL:CATA:1,2019-03-13T10:47:00Z,30.3085,-88.1395,98.0,1111122 
DISL,ioos:station:DISL:CATA:1,2019-03-13T11:47:00Z,30.3085,-88.1395,94.8,1111122 
DISL,ioos:station:DISL:CATA:1,2019-03-13T12:47:00Z,30.3085,-88.1395,94.9,1111122 
DISL,ioos:station:DISL:CATA:1,2019-03-13T13:47:00Z,30.3085,-88.1395,93.6,1111122 